Location: Kuffner-Sternwarte
(48.2130°N, 16.2960°E)
Time: 03:00:36
(UTC+02:00)

LO-87 - Visible Passes

Search period start: 18 June 2019 00:00
Search period end: 28 June 2019 00:00
Orbit: 476 x 492 km, 97.4° (Epoch: 17 June)

Date Brightness Start Highest point End Pass type
(mag) Time Alt. Az. Time Alt. Az. Time Alt. Az.
18 Jun ? 00:31:00 21° WSW 00:31:57 24° W 00:34:57 10° NW visible
18 Jun ? 22:32:02 10° E 22:34:15 16° ENE 22:36:28 10° NNE visible
19 Jun ? 00:06:15 34° SSW 00:07:20 46° W 00:10:51 10° NNW visible
19 Jun ? 23:41:30 38° SSE 23:42:48 88° ENE 23:46:27 10° NNW visible
20 Jun ? 23:16:45 26° SE 23:18:22 44° ENE 23:21:51 10° N visible
21 Jun ? 00:51:06 14° WSW 00:52:02 15° W 00:54:12 10° NW visible
21 Jun ? 22:52:00 15° ESE 22:54:00 24° ENE 22:56:59 10° NNE visible
22 Jun ? 00:26:21 24° WSW 00:27:21 27° W 00:30:30 10° NW visible
22 Jun ? 22:27:45 10° E 22:29:43 14° ENE 22:31:42 10° NNE visible
23 Jun ? 00:01:36 36° SSW 00:02:45 52° W 00:06:20 10° NNW visible
23 Jun ? 23:36:51 36° SSE 23:38:14 77° ENE 23:41:53 10° N visible
24 Jun ? 23:12:06 24° SE 23:13:48 39° ENE 23:17:13 10° N visible
25 Jun ? 00:46:27 15° WSW 00:47:25 17° W 00:49:51 10° NW visible
25 Jun ? 22:47:22 14° ESE 22:49:27 22° ENE 22:52:18 10° NNE visible
26 Jun ? 00:21:43 26° SW 00:22:44 31° W 00:26:01 10° NNW visible
26 Jun ? 22:23:30 10° E 22:25:11 13° ENE 22:26:52 10° NNE visible
26 Jun ? 23:56:58 38° SSW 23:58:09 60° W 00:01:46 10° NNW visible
27 Jun ? 23:32:13 34° SSE 23:33:38 68° ENE 23:37:16 10° N visible
